User: anonymous   Login
Location: Unspecified
(0.0000°N, 0.0000°E)
Time: 07:51:55
(UTC+00:00)
Language:

GONETS M 08 (M18) - Orbit

View from above orbital plane
View from above orbital plane
View from above satellite
View from above satellite

Ground track
Ground track

The orbit data is extracted from the following two-line orbital elements,

1 40061U 14036A   17328.38062003  .00000023  00000-0  90291-4 0  9998
2 40061  82.5103  89.6036 0029830 128.9667 231.4077 12.42875062154028
Epoch (UTC): 24 November 2017 09:08:05
Eccentricity: 0.0029830
inclination: 82.5103°
perigee height: 1471 km
apogee height: 1518 km
right ascension of ascending node: 89.6036°
argument of perigee: 128.9667°
revolutions per day: 12.42875062
mean anomaly at epoch: 231.4077°
orbit number at epoch: 15402

The dashed part of the orbit path shows where the satellite is in the earth's shadow,  

DLR